This is the latest recevied weather packets stored in our database for station/object K9TLD. If no packets are shown the sender has not sent any weather packets the latest 10 day(s).
| Time | Temp. | Humidity | Pressure | Rain* | Wind** | Luminosity | Snow |
|---|---|---|---|---|---|---|---|
| 1778169818 | 11.11° C | 42% | 1015.3 hPa | 0 mm | - | 329 W/m² | - |
| 1778169515 | 11.67° C | 43% | 1015.4 hPa | 0 mm | - | 464 W/m² | - |
| 1778169210 | 11.67° C | 41% | 1015.3 hPa | 0 mm | - | 343 W/m² | - |
| 1778168907 | 11.11° C | 44% | 1015.4 hPa | 0 mm | - | 593 W/m² | - |
| 1778168605 | 11.11° C | 43% | 1015.3 hPa | 0 mm | - | 623 W/m² | - |
| 1778168301 | 10° C | 43% | 1015.4 hPa | 0 mm | - | 693 W/m² | - |
| 1778167998 | 10.56° C | 44% | 1015.5 hPa | 0 mm | - | 320 W/m² | - |
| 1778167695 | 10.56° C | 43% | 1015.5 hPa | 0 mm | - | 484 W/m² | - |
| 1778167391 | 9.44° C | 44% | 1015.6 hPa | 0 mm | - | 575 W/m² | - |
| 1778167087 | 10° C | 45% | 1015.7 hPa | 0 mm | - | 293 W/m² | - |
| 1778166783 | 10° C | 44% | 1015.7 hPa | 0 mm | - | 394 W/m² | - |
| 1778166480 | 10° C | 44% | 1015.9 hPa | 0 mm | - | 515 W/m² | - |
| 1778166177 | 10° C | 46% | 1015.6 hPa | 0 mm | - | 451 W/m² | - |
| 1778165873 | 10° C | 47% | 1015.9 hPa | 0 mm | - | 574 W/m² | - |
| 1778165569 | 9.44° C | 44% | 1016 hPa | 0 mm | - | 520 W/m² | - |
| 1778165267 | 8.89° C | 46% | 1015.9 hPa | 0 mm | - | 434 W/m² | - |
| 1778164964 | 8.89° C | 45% | 1016.1 hPa | 0 mm | - | 268 W/m² | - |
| 1778164661 | 9.44° C | 44% | 1015.9 hPa | 0 mm | - | 279 W/m² | - |
| 1778164359 | 8.89° C | 45% | 1015.8 hPa | 0 mm | - | 213 W/m² | - |
| 1778164054 | 8.89° C | 47% | 1016.1 hPa | 0 mm | - | 266 W/m² | - |
| 1778163750 | 10° C | 44% | 1016.1 hPa | 0 mm | - | 268 W/m² | - |
| 1778163447 | 10° C | 45% | 1016 hPa | 0 mm | - | 476 W/m² | - |
| 1778163144 | 9.44° C | 45% | 1016 hPa | 0 mm | - | 462 W/m² | - |
| 1778162840 | 9.44° C | 46% | 1016.3 hPa | 0 mm | - | 441 W/m² | - |
| 1778162538 | 8.89° C | 47% | 1016.2 hPa | 0 mm | - | 441 W/m² | - |
* Rain latest hour (hover to see other rain measurements)
** Current wind speed in m/s (hover to see current wind gust speed)